Vancleve, KY

3:17 AM EST on December 10, 2016 (GMT -0500)
Carroll

Weather History for KJKL - October, 2012

Change the Weather History Date:

Saturday, October 27, 2012

  Actual Average Record
Temperature  
Mean Temperature 47 °F 55 °F  
Max Temperature 50 °F 65 °F 83 °F (1991)
Min Temperature 44 °F 45 °F 31 °F (1990)
Degree Days  
Heating Degree Days 18 10  
Month to date heating degree days 198 200  
Since 1 July heating degree days 260 252  
Cooling Degree Days 0 0  
Month to date cooling degree days 24 30  
Year to date cooling degree days 1318 1151  
Moisture  
Dew Point 45 °F    
Average Humidity 90    
Maximum Humidity 100    
Minimum Humidity 80    
Precipitation  
Precipitation 0.36 in 0.12 in 2.02 in (2004)
Month to date precipitation 2.14 2.74  
Year to date precipitation 42.66 39.75  
Snow  
Snow 0.00 in 0.00 in T in (2008)
Month to date snowfall 0.0 0.1  
Since 1 July snowfall 0.0 0.1  
Since 1 September snowfall 0.0 0.1  
Snow Depth 0.00 in    
Sea Level Pressure  
Sea Level Pressure 30.01 in    
Wind  
Wind Speed 2 mph (NW)    
Max Wind Speed 7 mph    
Max Gust Speed 13 mph    
Visibility 5 miles    
Events Rain    
T = Trace of Precipitation, MM = Missing Value Source: NWS Daily Summary

Daily Weather History Graph

Daily Weather History Graph

Search for Another Location

Airport or City:

Trip Planner

Search our weather history database for the weather conditions in past years. The results will help you decide how hot, cold, wet, or windy it might be!

Date:

Astronomy

Oct. 27, 2012 Rise Set
Actual Time 7:53 AM EDT 6:39 PM EDT
Civil Twilight 7:26 AM EDT 7:06 PM EDT
Nautical Twilight 6:56 AM EDT 7:37 PM EDT
Astronomical Twilight 6:25 AM EDT 8:07 PM EDT
Moon 5:24 PM EDT (10/27) 5:49 AM EDT (10/27)
Length of Visible Light 11h 40m
Length of Day
10h 46m
Waxing Gibbous, 96% of the Moon is Illuminated
Oct 27
Waxing Gibbous
Oct 29
Full
Nov 6
Last Quarter
Nov 13
New
Nov 20
First Quarter

Hourly Weather History & Observations

Time (EDT) Temp. Windchill Dew Point Humidity Pressure Visibility Wind Dir Wind Speed Gust Speed Precip Events Conditions
12:18 AM 48.2 °F - 44.6 °F 87% 30.03 in 10.0 mi NW 4.6 mph - N/A   Overcast
12:53 AM 50.0 °F - 45.0 °F 83% 30.01 in 10.0 mi Variable 4.6 mph - N/A   Overcast
1:53 AM 50.0 °F - 45.0 °F 83% 29.99 in 10.0 mi Calm Calm - N/A   Overcast
2:53 AM 48.9 °F - 45.0 °F 86% 29.99 in 10.0 mi WNW 4.6 mph - N/A   Overcast
3:38 AM 48.2 °F - 44.6 °F 87% 30.00 in 10.0 mi NW 6.9 mph - N/A   Overcast
3:53 AM 48.0 °F - 46.0 °F 93% 29.97 in 10.0 mi NW 4.6 mph - N/A   Overcast
4:27 AM 48.2 °F - 46.4 °F 93% 29.98 in 10.0 mi Calm Calm - N/A   Overcast
4:53 AM 46.9 °F - 46.0 °F 97% 29.97 in 6.0 mi Variable 4.6 mph - N/A   Overcast
5:45 AM 46.4 °F - 46.4 °F 100% 29.99 in 2.5 mi Calm Calm - N/A   Overcast
5:53 AM 46.9 °F - 46.0 °F 97% 29.97 in 1.5 mi WNW 3.5 mph - N/A   Overcast
6:53 AM 46.9 °F - 46.0 °F 97% 29.97 in 1.5 mi Calm Calm - N/A   Overcast
6:57 AM 46.4 °F - 46.4 °F 100% 29.99 in 2.0 mi Calm Calm - N/A   Overcast
7:08 AM 46.4 °F - 46.4 °F 100% 29.99 in 1.5 mi Calm Calm - 0.00 in Rain Light Rain
7:15 AM 46.4 °F - 46.4 °F 100% 29.99 in 2.0 mi Calm Calm - 0.00 in Rain Rain
7:27 AM 46.4 °F - 44.6 °F 93% 29.99 in 3.0 mi Calm Calm - N/A Rain Light Rain
7:51 AM 46.4 °F 43.5 °F 44.6 °F 93% 30.01 in 2.0 mi NW 5.8 mph - 0.01 in   Overcast
7:53 AM 46.0 °F 43.9 °F 45.0 °F 96% 30.00 in 2.0 mi Variable 4.6 mph - 0.01 in   Overcast
8:02 AM 46.4 °F 45.2 °F 44.6 °F 93% 30.01 in 4.0 mi NNW 3.5 mph - N/A   Overcast
8:50 AM 46.4 °F 43.5 °F 44.6 °F 93% 30.02 in 2.5 mi NNW 5.8 mph - 0.01 in Rain Light Rain
8:53 AM 46.0 °F 44.8 °F 45.0 °F 96% 30.02 in 2.5 mi Variable 3.5 mph - 0.01 in Rain Light Rain
9:12 AM 46.4 °F 43.5 °F 46.4 °F 100% 30.03 in 1.5 mi NW 5.8 mph - 0.00 in Rain Light Rain
9:53 AM 46.9 °F - 46.0 °F 97% 30.04 in 2.0 mi Variable 4.6 mph - 0.01 in   Overcast
10:15 AM 46.4 °F 44.3 °F 46.4 °F 100% 30.04 in 1.8 mi Variable 4.6 mph - 0.03 in Rain Rain
10:19 AM 46.4 °F 45.2 °F 44.6 °F 93% 30.05 in 3.0 mi Variable 3.5 mph - 0.03 in Rain Light Rain
10:48 AM 46.4 °F 45.2 °F 44.6 °F 93% 30.05 in 5.0 mi Variable 3.5 mph - 0.05 in Rain Light Rain
10:53 AM 46.4 °F 44.3 °F 44.6 °F 93% 30.05 in 3.0 mi NW 4.6 mph - N/A Rain Rain
11:29 AM 46.4 °F - 44.6 °F 93% 30.05 in 2.0 mi Calm Calm - 0.08 in Rain Rain
11:40 AM 46.4 °F - 44.6 °F 93% 30.04 in 1.8 mi Calm Calm - 0.12 in Rain Heavy Rain
11:49 AM 46.4 °F 44.3 °F 44.6 °F 93% 30.05 in 2.5 mi Variable 4.6 mph - 0.15 in Rain Rain
11:53 AM 46.0 °F 43.1 °F 45.0 °F 96% 30.05 in 3.0 mi Variable 5.8 mph - 0.17 in Rain Rain
11:56 AM 46.4 °F 44.3 °F 44.6 °F 93% 30.05 in 3.0 mi North 4.6 mph - N/A Rain Rain
12:03 PM 46.4 °F 45.2 °F 46.4 °F 100% 30.04 in 3.0 mi Variable 3.5 mph - 0.02 in Rain Rain
12:13 PM 46.4 °F 45.2 °F 46.4 °F 100% 30.04 in 4.0 mi Variable 3.5 mph - 0.04 in Rain Light Rain
12:53 PM 46.9 °F - 46.0 °F 97% 30.03 in 10.0 mi Calm Calm - 0.04 in Rain Light Rain
1:53 PM 48.0 °F - 46.0 °F 93% 30.01 in 10.0 mi Calm Calm - 0.01 in   Overcast
2:53 PM 48.0 °F - 46.0 °F 93% 30.01 in 9.0 mi Calm Calm - 0.00 in Rain Light Rain
3:04 PM 46.4 °F 45.2 °F 44.6 °F 93% 30.00 in 2.5 mi Variable 3.5 mph - 0.00 in Rain Light Rain
3:15 PM 46.4 °F 45.2 °F 44.6 °F 93% 30.00 in 2.5 mi Variable 3.5 mph - 0.00 in Rain Light Rain
3:37 PM 46.4 °F 45.2 °F 46.4 °F 100% 30.00 in 4.0 mi Variable 3.5 mph - 0.00 in   Overcast
3:53 PM 46.9 °F - 46.0 °F 97% 30.00 in 8.0 mi Calm Calm - 0.01 in   Overcast
4:38 PM 46.4 °F 45.2 °F 44.6 °F 93% 30.00 in 10.0 mi Variable 3.5 mph - N/A   Overcast
4:53 PM 46.0 °F - 45.0 °F 96% 30.01 in 10.0 mi Calm Calm - N/A   Overcast
5:53 PM 46.0 °F - 44.1 °F 93% 30.02 in 8.0 mi Calm Calm - N/A   Overcast
6:22 PM 46.4 °F - 44.6 °F 93% 30.01 in 4.0 mi Calm Calm - 0.00 in   Overcast
6:53 PM 45.0 °F 43.5 °F 44.1 °F 97% 30.03 in 5.0 mi Variable 3.5 mph - 0.00 in Rain Light Rain
7:53 PM 45.0 °F 43.5 °F 44.1 °F 97% 30.03 in 2.5 mi Variable 3.5 mph - 0.00 in   Overcast
8:05 PM 44.6 °F - 44.6 °F 100% 30.03 in 3.0 mi Calm Calm - 0.00 in Rain Light Rain
8:53 PM 45.0 °F 43.5 °F 44.1 °F 97% 30.02 in 5.0 mi Variable 3.5 mph - 0.01 in   Overcast
9:53 PM 45.0 °F - 44.1 °F 97% 30.03 in 5.0 mi Calm Calm - 0.00 in   Overcast
10:53 PM 45.0 °F - 44.1 °F 97% 30.04 in 3.0 mi Calm Calm - N/A   Overcast
11:53 PM 44.6 °F 43.1 °F 44.6 °F 100% 30.02 in 4.0 mi Variable 3.5 mph - N/A Rain Light Rain